sat.trackr.live / text

‹ back to catalog

STARLINK-32526

NORAD 62162 · 2024-224Z

PAYLOAD ACTIVE UNKNOWN

§ Identity

Operator
Country
US
Launch date
2024-11-30
Launch site
AFETR
Launch vehicle
Mass (kg)
RCS (m²)

Purposes: comms

External: N2YO · Heavens-Above · Gunter

§ Orbital elements

Epoch: 2026-09-20T02:29:31.194528Z

Period
94.27 min
Inclination
43.0003°
Eccentricity
0.0001182
Mean motion
15.27593419 rev/d
Perigee alt
482.2 km
Apogee alt
483.8 km
Semi-major
6,861.1 km
B*
4.1968e-4
RAAN
143.5712°
Arg perigee
275.4557°
Mean anomaly
84.6159°
Rev number
10,216

§ Raw data

STARLINK-325261 62162U 24224Z   26263.10383327  .00011309  00000+0  41968-3 0  99912 62162  43.0003 143.5712 0001182 275.4557  84.6159 15.27593419102168

JSON: /api/v1/satellites/62162 · /tle

For live sub-satellite position, see the globe view (requires WebGL).

§ Visibility from observer

Set your observer location to see the next 7 days of passes ≥ 10°. The values pass through the URL so the page stays shareable.

No JS? Fill the form by hand. The geolocation button needs JavaScript.